This is the latest recevied weather packets stored in our database for station/object OE5HCE. If no packets are shown the sender has not sent any weather packets the latest 10 day(s).
| Time | Temp. | Humidity | Pressure | Rain* | Wind** | Luminosity | Snow |
|---|---|---|---|---|---|---|---|
| 1777587304 | 5.56° C | 61% | 1030.4 hPa | 0 mm | - | 0 W/m² | - |
| 1777586401 | 5.56° C | 62% | 1030.3 hPa | 0 mm | - | 0 W/m² | - |
| 1777585568 | 6.11° C | 59% | 1030.2 hPa | 0 mm | - | 0 W/m² | - |
| 1777584661 | 6.11° C | 58% | 1030.3 hPa | 0 mm | - | 0 W/m² | - |
| 1777583793 | 6.67° C | 57% | 1030.3 hPa | 0 mm | - | 0 W/m² | - |
| 1777582859 | 6.67° C | 55% | 1030.3 hPa | 0 mm | - | 0 W/m² | - |
| 1777581966 | 7.22° C | 54% | 1030.1 hPa | 0 mm | - | 0 W/m² | - |
| 1777581058 | 7.78° C | 52% | 1030.1 hPa | 0 mm | - | 0 W/m² | - |
| 1777580162 | 7.78° C | 51% | 1030 hPa | 0 mm | - | 0 W/m² | - |
| 1777579256 | 8.33° C | 50% | 1029.9 hPa | 0 mm | - | 0 W/m² | - |
| 1777578376 | 8.33° C | 49% | 1029.8 hPa | 0 mm | - | 0 W/m² | - |
| 1777577457 | 8.89° C | 47% | 1029.7 hPa | 0 mm | - | 0 W/m² | - |
| 1777576557 | 9.44° C | 48% | 1029.6 hPa | 0 mm | - | 0 W/m² | - |
| 1777575654 | 9.44° C | 46% | 1029.4 hPa | 0 mm | - | 0 W/m² | - |
| 1777574768 | 10° C | 45% | 1029.3 hPa | 0 mm | - | 0 W/m² | - |
| 1777573853 | 10.56° C | 45% | 1029.2 hPa | 0 mm | - | 0 W/m² | - |
| 1777572953 | 11.11° C | 43% | 1029.1 hPa | 0 mm | - | 0 W/m² | - |
| 1777572066 | 11.67° C | 40% | 1029 hPa | 0 mm | - | 11 W/m² | - |
| 1777571151 | 12.22° C | 37% | 1028.9 hPa | 0 mm | - | 19 W/m² | - |
| 1777570254 | 12.78° C | 35% | 1028.9 hPa | 0 mm | - | 46 W/m² | - |
| 1777569350 | 13.89° C | 34% | 1028.9 hPa | 0 mm | - | 65 W/m² | - |
| 1777568449 | 14.44° C | 32% | 1028.8 hPa | 0 mm | - | 98 W/m² | - |
| 1777567548 | 15° C | 33% | 1028.8 hPa | 0 mm | - | 179 W/m² | - |
| 1777566648 | 15.56° C | 31% | 1028.8 hPa | 0 mm | - | 223 W/m² | - |
| 1777565758 | 15.56° C | 31% | 1028.8 hPa | 0 mm | - | 269 W/m² | - |
* Rain latest hour (hover to see other rain measurements)
** Current wind speed in m/s (hover to see current wind gust speed)